Flag for Germany Weather past 2 weeks in Bad Vilbel, Hesse, Germany

Now
54 °F

Scattered clouds.


Feels Like: 52 °F
Forecast: 37 / 60 °F
Wind: 7 mph from North

Location: Frankfurt / M-Flughafen


UV Index: 0 (Low)

Visibility: 31 mi


Pressure: 29.89 "Hg

Humidity: 40%

Dew point: 30 °F

Location of Bad VilbelLocation

Historic Weather in Bad Vilbel

°F

Bad Vilbel temperature yesterday

Maximum temperature yesterday: 62 °F (at 6:00 PM)
Minimum temperature yesterday: 36 °F (at 4:00 AM)
Average temperature yesterday: 48 °F

Past Weeks' High & Low Weather Summary

 TemperatureHumidityPressure
High72 °F (Apr 4, 4:00 PM)95% (Apr 6, 6:00 AM)30.44 "Hg (Apr 6, 6:00 AM)
Low33 °F (Apr 16, 6:00 AM)26% (Apr 17, 6:00 PM)29.64 "Hg (Apr 3, 7:00 PM)
Average55 °F61%30.07 "Hg
* Reported Apr 3 11:00 AM — Apr 18 11:00 AM, Bad Vilbel, Weather by CustomWeather, © 2014

Note: Actual official high and low records may vary slightly from our data, if they occured in-between our weather recording intervals... More about our weather records

Advertising

Historic Weather Conditions — Data for Previous 24 hours

 ConditionsComfort  
Time TempWeatherWind HumidityBarometerVisibility
11:00 AM
Apr 18
51 °FScattered clouds.7 mph54%29.90 "Hg31 mi
10:00 AM49 °FScattered clouds.5 mph61%29.90 "Hg28 mi
9:00 AM48 °FScattered clouds.5 mph65%29.89 "Hg25 mi
8:00 AM48 °FPartly sunny.5 mph77%29.88 "Hg22 mi
7:00 AM48 °FLight rain. Overcast.2 mph78%29.86 "Hg22 mi
6:00 AM50 °FLight rain. Overcast.5 mph75%29.85 "Hg11 mi
5:00 AM47 °FLight rain. Overcast.1 mph84%29.85 "Hg16 mi
4:00 AM47 °FLight rain. Overcast.1 mph81%29.88 "Hg47 mi
3:00 AM50 °FLight rain. Overcast.1 mph55%29.88 "Hg19 mi
2:00 AM49 °FOvercast.2 mph51%29.89 "Hg25 mi
6:00 PM
Apr 17
62 °FScattered clouds.2 mph26%30.04 "Hg28 mi
5:00 PM62 °FPartly sunny.3 mph28%30.07 "Hg25 mi
4:00 PM62 °FOvercast.2 mph27%30.09 "Hg25 mi
3:00 PM60 °FOvercast.2 mph28%30.13 "Hg25 mi
2:00 PM59 °FPartly sunny.3 mph27%30.17 "Hg28 mi
1:00 PM57 °FScattered clouds.2 mph29%30.21 "Hg25 mi
12:00 PM55 °FPassing clouds.2 mph35%30.26 "Hg25 mi
Weather by CustomWeather, © 2014

See weather overview